Location: Brachstadt
(48.6975°N, 10.6755°E)
Time: 08:28:46
(UTC+00:00)

Cosmos 2150 Rocket - Pass Details

Date: 18 September 2020
Orbit: 749 x 808 km, 74.0° (Epoch: 27 October)

Event Time Altitude Azimuth Distance (km) Brightness Sun altitude
Rises 18:46:06 0° 181° (S) 3,259 7.1 -14.3°
Reaches altitude 10° 18:48:33 10° 175° (S) 2,344 6.3 -14.6°
Maximum altitude 18:53:36 44° 104° (ESE) 1,094 4.3 -15.4°
Drops below altitude 10° 18:58:44 10° 34° (NE) 2,391 6.4 -16.2°
Sets 19:01:15 0° 28° (NNE) 3,331 7.2 -16.6°
